DW6233 Weather Reports


Display with metric or nautical units.
time (UTC)temp
F
wind
direction
speed
MPH
gust
MPH
rain 1hr
in
rain 24hr
in
rain mn
in
humidity
%
barometer
mb
20260505054508 55 81 0.0 9.0 0.00 0.00 0.00 79 1031.5
20260505053015 56 74 3.0 12.0 0.00 0.00 0.00 79 1031.5
20260505051536 57 38 4.0 12.0 0.00 0.00 0.00 78 1031.5
20260505041502 57 15 6.0 16.0 0.00 0.00 0.00 76 1031.8
20260505040059 57 28 7.0 14.0 0.00 0.00 0.00 75 1031.7
20260505034534 58 20 6.0 16.0 0.00 0.00 0.00 75 1031.8
20260505033012 59 45 5.0 12.0 0.00 0.00 0.00 73 1031.7
20260505031535 59 345 10.0 15.0 0.00 0.00 0.00 72 1031.7
20260505030044 59 36 9.0 14.0 0.00 0.00 0.00 72 1031.6
20260505024552 59 349 14.0 20.0 0.00 0.00 0.00 70 1031.7
20260505023002 59 358 10.0 18.0 0.00 0.00 0.00 71 1031.8
20260505021539 59 12 12.0 19.0 0.00 0.00 0.00 71 1032.0
20260505014516 58 27 15.0 21.0 0.00 0.00 0.00 72 1032.1
20260505013033 58 14 9.0 18.0 0.00 0.00 0.00 73 1032.2
20260505011544 58 4 11.0 17.0 0.00 0.00 0.00 73 1032.4
20260505010057 58 15 9.0 14.0 0.00 0.00 0.00 74 1032.6
20260505004534 58 89 8.0 14.0 0.00 0.00 0.00 74 1032.9
20260505003005 58 11 15.0 19.0 0.00 0.00 0.00 73 1033.1
20260505001554 58 22 8.0 17.0 0.00 0.00 0.00 75 1033.3
20260505000039 58 5 10.0 17.0 0.00 0.00 0.00 74 1033.5
20260504234525 58 60 7.0 15.0 0.00 0.00 0.00 74 1033.7
20260504233010 58 6 7.0 14.0 0.00 0.00 0.00 72 1033.9
20260504231558 58 12 7.0 14.0 0.00 0.00 0.00 73 1033.9
20260504224544 58 39 9.0 16.0 0.00 0.00 0.00 73 1034.1
20260504223035 58 36 12.0 18.0 0.00 0.00 0.00 70 1034.0
20260504221525 58 17 9.0 18.0 0.00 0.00 0.00 74 1034.0
20260504220036 58 357 11.0 20.0 0.00 0.00 0.00 72 1034.1
20260504214521 57 25 9.0 17.0 0.00 0.00 0.00 71 1034.2
20260504213037 57 19 11.0 16.0 0.00 0.00 0.00 73 1034.1
20260504211509 57 13 11.0 22.0 0.00 0.00 0.00 72 1034.2
20260504210030 57 36 8.0 17.0 0.00 0.00 0.00 73 1034.2
20260504210007 57 56 7.0 17.0 0.00 0.00 0.00 73 1034.2
20260504204519 57 90 9.0 17.0 0.00 0.00 0.00 73 1034.2
20260504203058 57 63 7.0 16.0 0.00 0.00 0.00 74 1034.2
20260504201558 57 22 8.0 12.0 0.00 0.00 0.00 74 1034.2
20260504200017 57 38 9.0 19.0 0.00 0.00 0.00 75 1034.1
20260504194530 57 48 10.0 16.0 0.00 0.00 0.00 74 1034.0
20260504193027 57 10 7.0 13.0 0.00 0.00 0.00 75 1033.9
20260504191502 57 24 7.0 14.0 0.00 0.00 0.00 75 1033.9
20260504190032 57 88 6.0 12.0 0.00 0.00 0.00 76 1033.9
20260504184528 57 26 7.0 15.0 0.00 0.00 0.00 76 1033.8
20260504183026 57 68 7.0 14.0 0.00 0.00 0.00 76 1033.8
20260504181534 57 36 7.0 14.0 0.00 0.00 0.00 76 1033.8
20260504180110 57 19 8.0 17.0 0.00 0.00 0.00 76 1033.8
20260504174557 57 27 12.0 18.0 0.00 0.00 0.00 76 1033.9
20260504171553 58 342 11.0 20.0 0.00 0.00 0.00 76 1033.8
20260504120104 58 36 9.0 14.0 0.00 0.00 0.00 77 1034.7
20260504100117 58 20 9.0 16.0 0.00 0.00 0.00 74 1034.8
20260504081525 58 36 5.0 17.0 0.00 0.00 0.00 74 1034.4